RH
100 100 100 100 100 96 100 100 85 71 66 49 53 68 84 95 87 92 81 80 54 88 100 100 100 96 100 100 87 81 79 63 54 46 52 54 50 49 44 42 47 85 96 100
100 100 100 100 100 100 100 100 100 98 93 72 55 43 51 78 94 89 86 83 89 74 81 86 85 74 62 52 48 53 54 53 52 56 51 54 51 44 43 40 36 43 60 89
50 81 100 100 100 100 100 100 100 100 100 95 83 68 94 81 71 73 74 68 57 46 44 51 54 67 61 53 54 46 41 38 42 52 50 48 51 48 46 37 34 35 38 35
72 68 63 87 92 100 100 100 100 100 100 100 99 78 96 85 73 56 57 64 56 47 43 58 56 48 44 44 39 38 37 37 37 34 41 62 53 62 51 42 37 33 39 38
63 71 63 59 65 68 70 95 100 100 93 86 88 80 81 70 61 62 60 46 55 52 41 44 53 56 55 46 43 43 43 40 38 35 32 34 32 30 32 30 26 26 27 34
96 63 50 56 53 53 55 57 64 75 82 79 92 81 81 66 81 69 62 57 60 48 62 64 52 48 43 42 38 31 29 28 28 29 26 23 22 21 22 22 22 23 20 22
100 100 74 54 44 48 53 46 46 52 62 71 79 85 71 70 73 74 62 52 52 48 52 47 42 39 30 27 27 26 24 22 20 20 19 20 20 18 16 15 16 17 16 15
89 100 97 74 97 95 63 66 73 48 44 45 62 60 59 62 60 57 55 48 44 35 28 27 25 26 24 22 21 19 17 16 14 13 12 12 12 11 12 13 12 12 11 11
58 69 84 100 100 100 100 100 100 100 100 80 54 53 46 46 46 50 52 54 52 46 35 32 27 25 20 18 15 14 14 13 11 10 9 10 9 9 9 9 10 9 9 10
56 61 71 82 96 100 99 94 100 94 71 57 83 93 70 73 92 83 69 57 49 40 35 30 32 28 22 17 14 13 12 11 10 9 8 8 8 7 6 6 8 8 6 8
81 87 74 64 81 87 62 70 87 70 66 90 96 100 100 92 78 52 45 48 45 37 29 22 19 17 15 14 12 11 9 8 8 7 6 6 7 7 6 7 8 11 8 7
97 97 92 87 66 62 73 77 65 76 100 100 100 100 88 65 45 47 62 60 41 31 32 25 21 16 13 11 9 9 8 7 7 6 6 5 5 5 5 5 5 7 9 8
100 99 100 100 100 100 82 90 100 100 100 100 99 74 47 47 44 54 57 49 46 40 38 28 23 18 14 15 14 10 9 8 6 5 5 5 5 6 6 5 5 5 6 8
100 100 99 93 100 100 100 97 100 92 94 89 57 45 45 47 54 58 45 45 42 35 32 38 31 23 19 14 10 8 8 7 6 6 5 5 4 5 5 6 7 6 7 7
100 100 97 71 88 91 96 89 78 66 54 40 48 50 43 47 52 55 56 60 59 55 50 37 23 18 13 11 10 9 7 6 5 4 4 4 4 4 5 6 6 8 10 9
94 97 98 100 100 98 70 66 79 37 36 42 45 51 51 55 57 57 61 54 55 55 36 23 17 17 16 12 8 6 5 5 5 5 5 4 5 4 4 5 6 7 10 11
100 100 100 83 68 78 70 48 39 44 41 40 47 49 51 63 64 71 70 62 53 37 26 20 23 17 11 8 7 6 6 6 6 6 5 5 6 5 5 6 7 8 11 16
89 96 87 84 87 65 44 45 46 39 53 58 70 72 77 65 64 72 67 51 41 29 24 27 17 11 9 8 7 6 6 6 6 6 6 6 7 7 7 7 8 10 14 17
84 78 81 74 38 41 44 43 49 69 84 89 84 82 82 82 76 75 56 48 42 32 33 19 13 11 8 8 7 7 7 7 7 8 8 7 8 9 8 9 12 12 15 20
75 67 33 37 39 40 44 60 75 83 93 77 85 82 77 76 72 60 55 52 42 42 25 15 12 11 10 8 8 8 8 8 8 8 9 8 10 14 12 15 22 27 23 36
38 31 38 40 40 47 77 92 85 85 82 86 79 86 83 68 58 54 50 50 46 34 20 15 11 10 11 9 8 8 10 10 9 10 10 13 15 16 16 26 28 34 60 77
39 39 42 44 58 88 100 90 77 86 84 81 86 75 67 64 58 54 50 50 40 29 20 15 11 12 11 11 9 10 11 12 12 14 19 15 21 28 23 26 35 30 56 78
40 53 59 76 92 92 94 92 82 82 88 74 68 70 64 59 50 53 54 46 34 26 18 15 12 12 12 11 11 10 11 13 14 14 20 25 26 31 42 34 28 41 51 77
58 76 92 99 94 98 95 82 87 80 89 92 69 69 65 55 51 54 51 38 35 23 19 16 13 14 12 11 10 11 11 12 14 14 14 22 26 34 39 49 45 44 58 59
85 96 98 100 94 87 84 94 87 100 87 69 66 65 56 51 55 52 40 31 28 23 20 18 14 14 14 12 11 10 9 10 12 14 15 15 19 21 23 32 42 46 52 66
97 100 98 98 77 82 92 93 88 74 69 66 61 58 51 51 49 39 30 28 23 20 20 18 15 13 15 13 12 11 10 9 10 12 13 15 15 19 17 24 27 31 42 45
Wind_Speed
54 51 52 54 56 59 61 62 64 66 64 63 65 65 70 71 68 66 65 63 66 67 69 71 73 75 80 81 84 84 84 86 86 84 75 70 72 73 77 79 73 61 53 70
53 57 58 57 59 61 63 63 64 67 70 69 73 78 76 78 74 73 71 71 74 75 82 83 82 80 82 85 87 88 88 87 86 84 83 79 78 79 76 76 73 75 76 78
66 65 60 61 63 63 63 64 67 70 74 75 78 78 81 86 81 77 77 78 81 83 88 91 91 89 88 87 87 89 90 89 89 88 85 84 86 84 86 81 84 81 83 86
63 71 70 67 71 70 69 71 73 75 75 76 84 81 86 97 89 85 82 82 85 86 88 91 94 96 95 94 92 93 92 94 91 91 93 93 93 93 93 91 89 84 88 86
68 67 69 73 74 77 78 77 78 82 83 82 86 92 89 106 98 92 90 91 89 93 98 96 95 94 92 91 96 96 98 99 99 97 96 97 98 96 97 96 90 92 91 91
81 73 73 72 71 75 80 84 85 88 89 86 89 95 93 106 100 96 94 92 94 95 95 97 98 99 97 98 100 100 100 101 103 105 104 102 102 102 101 100 98 96 94 94
81 79 79 74 73 78 77 78 81 83 86 87 89 96 99 103 105 102 97 98 98 101 103 102 103 105 101 100 103 103 103 103 104 104 105 108 109 108 108 106 104 101 100 98
87 84 83 76 82 85 82 85 89 85 87 89 89 93 99 106 107 108 108 109 112 112 107 106 104 105 107 105 104 106 105 105 105 106 107 109 109 110 111 112 110 105 103 101
89 84 84 82 85 89 91 89 90 91 95 97 96 102 106 107 107 106 106 109 113 118 119 118 112 112 111 109 105 106 107 108 107 108 109 110 111 111 107 107 109 106 93 91
93 91 88 84 84 90 96 93 93 98 100 101 100 110 111 109 114 115 114 115 118 119 119 115 113 112 110 109 105 103 104 106 107 106 106 103 102 100 94 88 88 91 86 75
93 102 100 94 93 95 92 97 98 101 101 106 106 110 119 125 128 119 110 112 110 111 110 109 109 107 106 106 105 101 100 98 96 92 86 82 81 80 78 74 73 74 74 64
94 98 100 97 98 100 101 102 107 108 109 113 117 122 128 127 114 103 104 107 108 108 106 105 103 102 101 99 96 91 87 83 79 75 72 69 68 67 66 65 62 63 65 60
95 96 98 99 99 99 100 102 108 112 115 118 125 131 115 103 99 95 99 103 102 103 101 100 97 95 93 87 83 79 76 73 69 65 63 61 58 57 57 56 55 54 55 55
98 102 99 100 105 107 106 108 115 119 119 126 117 103 100 93 90 90 94 94 94 94 93 90 89 85 81 77 73 70 66 62 60 57 56 53 50 48 48 48 48 46 46 49
102 103 104 104 108 114 113 114 116 121 115 97 94 92 91 86 84 83 83 81 82 84 80 80 79 76 73 69 65 63 60 55 51 50 47 45 41 40 40 41 40 42 44 47
101 104 106 108 113 118 119 112 116 97 89 85 84 83 79 76 75 73 77 75 75 74 75 76 73 67 66 65 63 59 54 48 45 44 42 39 35 36 35 36 39 41 41 43
106 108 113 114 115 115 108 99 89 83 78 75 73 75 70 69 68 66 69 67 68 72 72 66 64 64 63 60 56 51 46 43 40 39 39 34 34 33 31 31 34 39 41 43
110 114 116 115 117 104 88 82 77 72 68 65 64 64 65 64 61 61 65 65 68 69 65 61 60 58 54 51 48 45 42 40 37 36 35 34 33 32 31 29 33 39 44 46
113 112 108 102 86 79 72 69 66 62 58 58 59 58 58 58 60 60 64 69 69 66 62 59 55 53 48 44 43 40 38 38 35 33 34 34 33 32 32 33 36 43 44 45
104 98 84 74 72 65 63 57 58 52 51 55 54 54 53 54 59 63 66 68 66 62 59 56 51 43 46 42 40 36 33 35 33 31 35 35 35 34 33 35 40 46 46 50
83 74 67 65 62 60 46 47 47 48 50 50 49 52 57 59 62 64 66 64 60 59 57 55 48 40 38 40 37 34 31 32 32 31 35 36 36 35 36 40 45 48 53 56
65 59 59 58 50 42 42 49 45 44 45 46 51 54 58 64 64 63 60 56 56 57 56 53 45 38 36 36 36 33 31 31 32 32 36 36 37 37 39 44 47 51 58 63
53 53 50 44 42 42 43 44 42 42 46 51 54 58 63 65 63 58 54 53 54 55 54 49 42 38 35 33 34 34 31 31 34 35 37 39 41 41 42 43 47 52 58 63
47 42 38 38 39 39 40 38 40 44 52 57 60 65 66 63 59 53 52 52 53 54 51 47 42 38 35 34 33 35 35 34 35 38 38 42 45 46 48 48 48 51 60 62
37 36 36 37 37 36 36 41 45 51 56 59 64 67 64 60 54 52 53 51 51 51 49 47 43 40 37 35 35 36 36 36 36 39 42 42 46 48 49 51 51 53 56 60
33 31 36 36 35 33 39 46 52 55 58 65 64 61 57 52 51 53 54 53 52 49 48 47 44 41 38 38 36 36 36 36 37 39 43 44 45 50 50 52 55 55 59 60
Wind_Direction
268 269 272 274 272 274 277 280 280 282 283 282 280 281 280 278 280 281 283 284 284 281 278 279 279 279 281 281 282 284 286 286 288 285 280 273 274 271 273 277 271 265 264 260
265 266 268 267 269 271 274 279 281 282 280 279 281 281 279 278 279 280 280 284 284 283 281 278 279 280 279 280 279 280 281 281 280 282 278 276 275 275 276 265 267 268 258 257
267 265 267 267 268 268 270 273 276 276 277 278 277 280 279 277 277 278 282 284 285 284 284 284 283 282 281 280 278 279 277 279 276 277 276 274 275 273 275 272 266 266 264 263
273 271 265 272 274 272 271 273 271 273 275 277 281 277 279 279 279 280 282 280 282 284 283 282 283 283 280 277 277 279 278 278 277 277 275 275 273 274 274 274 273 267 269 269
268 271 273 270 274 277 274 273 275 275 275 277 279 278 279 281 280 278 279 281 282 283 280 277 277 278 277 275 278 280 281 280 279 278 276 274 274 273 272 271 268 270 268 265
271 270 270 272 273 276 277 276 276 279 280 280 278 281 282 283 282 280 281 282 281 280 275 275 277 278 277 278 280 282 281 280 280 281 279 277 276 274 271 268 268 267 266 264
267 272 273 271 271 274 276 277 279 280 280 281 280 281 280 279 280 282 281 278 277 275 275 275 278 279 280 280 282 281 279 279 277 276 276 276 277 277 275 272 269 266 265 262
267 268 272 276 279 281 278 285 285 285 282 280 283 284 280 279 282 284 286 285 283 282 281 280 280 283 284 284 283 283 280 278 276 275 275 275 275 275 275 275 273 270 268 265
267 268 272 273 275 278 280 279 284 287 289 289 292 290 283 284 284 286 289 288 287 286 285 285 286 286 285 285 285 284 280 279 279 277 277 277 277 275 273 273 274 274 267 264
271 269 269 269 274 278 280 281 282 283 286 290 293 291 291 291 291 288 288 288 288 287 287 289 288 289 289 289 287 284 282 280 280 280 278 277 276 275 273 271 268 269 270 262
274 280 278 276 275 275 281 282 282 285 289 289 290 288 290 290 290 290 289 288 285 285 285 286 287 290 290 290 288 287 284 283 282 281 279 277 274 273 272 269 265 263 265 261
271 272 275 277 276 276 279 283 286 288 287 288 288 288 289 289 289 290 290 289 288 289 290 291 291 291 290 290 289 288 287 287 286 283 281 277 274 272 270 266 263 259 258 257
273 272 275 279 279 278 281 282 283 283 284 287 287 289 288 288 288 288 287 287 290 291 293 294 294 293 294 295 293 292 291 288 286 284 281 277 274 270 266 264 260 256 254 252
272 274 276 276 279 280 280 281 283 284 286 287 289 287 288 288 288 288 288 289 291 293 294 295 294 295 295 293 292 291 290 289 287 284 280 278 274 270 265 260 257 253 247 242
270 273 275 277 279 280 282 283 284 287 287 286 286 285 286 287 288 288 289 290 292 293 295 293 295 297 295 294 294 294 293 291 288 285 282 278 275 268 260 255 248 242 238 235
272 273 274 277 280 281 285 288 288 286 286 285 285 285 284 285 286 287 287 292 295 296 296 297 298 297 296 297 297 295 292 291 287 284 281 280 275 266 258 248 241 236 234 233
272 275 276 278 282 285 289 286 286 285 286 283 282 282 285 285 287 291 292 295 297 297 296 299 300 299 298 297 294 293 292 287 283 280 278 275 270 264 257 247 236 231 225 224
270 274 277 279 283 285 283 283 283 284 281 281 282 285 287 290 293 295 298 300 299 298 299 301 300 299 297 295 293 291 287 282 279 275 272 270 264 260 254 241 233 227 224 220
273 276 280 282 281 280 280 281 282 279 280 281 282 286 288 292 296 300 302 300 301 300 302 301 302 302 297 294 291 288 281 278 275 269 266 263 257 250 247 238 228 226 224 221
274 278 279 276 275 277 278 280 278 277 280 280 286 290 293 297 299 299 300 301 299 300 301 303 303 298 295 293 289 284 279 274 271 264 262 258 253 247 238 233 225 223 223 216
272 274 275 275 276 279 275 271 269 275 281 285 289 296 298 300 301 300 300 299 298 300 303 304 302 298 293 290 287 281 276 271 269 265 257 257 251 244 234 227 228 220 218 215
271 270 271 274 274 269 270 272 275 278 279 290 293 296 302 304 301 300 299 298 299 302 303 302 298 297 293 285 281 277 271 266 261 258 252 259 244 243 238 228 230 226 218 217
266 269 269 270 269 268 269 272 277 284 292 294 299 303 305 302 300 299 298 297 301 302 301 300 296 294 290 283 276 275 266 262 258 252 248 249 241 242 240 238 234 230 226 224
264 264 263 261 263 264 267 275 284 290 294 298 300 302 304 299 299 297 295 298 302 301 299 297 294 293 289 283 273 270 268 261 258 254 251 249 244 243 239 236 238 234 230 230
259 257 257 255 259 264 277 284 289 291 293 297 301 301 300 298 297 296 296 299 299 299 296 295 292 289 287 283 275 270 266 262 257 252 252 252 249 247 245 239 238 235 234 233
250 250 251 254 263 277 284 286 289 294 298 304 301 299 298 296 296 296 297 297 297 296 293 292 290 288 286 284 278 272 269 263 257 254 252 252 251 248 249 247 242 240 235 235